Regional Weather Roundup
Issued by NWS

Home | Current Version | Previous Version | Graphics & Text | Print | Product List | Glossary On
Versions: 1 2 3 4 5 6 7 8 9 10 11 12 13 14 15 16 17 18 19 20 21 22 23 24 25 26 27 28 29 30 31 32 33 34 35 36 37 38 39 40 41 42 43 44 45 46 47 48 49 50
000
ASUS43 KDMX 052107
RWRIA

WEATHER ROUNDUP FOR IOWA
NATIONAL WEATHER SERVICE DES MOINES IA
300 PM CST THU MAR 05 2015

NOTE: "FAIR" INDICATES FEW OR NO CLOUDS BELOW 12,000 FEET WITH NO
SIGNIFICANT WEATHER AND/OR OBSTRUCTIONS TO VISIBILITY.

* - THESE STATIONS ARE NOT NWS STATIONS...THUS NOT UNDER NWS
QUALITY CONTROL.  THEY ALSO DO NOT REPORT WEATHER SUCH
AS PRECIPITATION OR FOG.

IAZ001>003-012>014-020>022-031>034-043>046-052200-
   NORTHWEST IOWA

CITY           SKY/WX    TMP DP  RH WIND       PRES   REMARKS
CARROLL *      SUNNY     21   1  42 SW8G16    30.44F WCI  12
CHEROKEE *     SUNNY     21   5  49 SW9       30.40F WCI  11
DENISON *      SUNNY     23   1  39 SW8       30.40F WCI  14
LE MARS *      SUNNY     28   3  34 S13       30.37F WCI  18
ORANGE CITY *  SUNNY     27   3  36 S13       30.36F WCI  16
SHELDON *      SUNNY     23   1  39 S14G20    30.35F WCI  11
SIOUX CITY     SUNNY     31   3  30 S15       30.38F WCI  20
SPENCER        SUNNY     20   4  50 SW12      30.39F WCI   8
STORM LAKE *   SUNNY     19   3  49 SW14      30.40F WCI   6
$$

IAZ055>058-069>071-079>083-090>094-052200-
   SOUTHWEST IOWA

CITY           SKY/WX    TMP DP  RH WIND       PRES   REMARKS
ATLANTIC *     SUNNY     25   0  33 VRB6G12   30.45F WCI  18
AUDUBON *      SUNNY     23   0  36 SW5       30.44F WCI  17
CLARINDA *     SUNNY     28   1  31 CALM      30.49F
COUNCIL BLFS * SUNNY     27   3  36 S9G17     30.42F WCI  17
CRESTON *      SUNNY     23  -4  30 N5        30.46S WCI  17
HARLAN  *      SUNNY     23   3  42 VRB5G12   30.47F WCI  17
LAMONI         SUNNY     23   1  38 VRB5      30.48S WCI  17
RED OAK *      SUNNY     27   1  33 VRB3G12   30.47F
SHENANDOAH *   SUNNY     28   1  31 VRB6G13   30.48F WCI  22
$$

IAZ047>049-059>061-072>074-084-052200-
   CENTRAL IOWA

CITY           SKY/WX    TMP DP  RH WIND       PRES   REMARKS
AMES           SUNNY     15   2  56 W6        30.49F WCI   6
ANKENY *       SUNNY     18   0  45 VRB5      30.51S WCI  11
CHARITON *     SUNNY     21   0  39 CALM      30.49S
DES MOINES     SUNNY     20  -2  38 CALM      30.50F
GRINNELL*      SUNNY     12   0  57 NW3       30.50F
KNOXVILLE *    SUNNY     18  -2  41 W5        30.49F WCI  11
MARSHALLTOWN   SUNNY     11   0  61 CALM      30.50F
PELLA *        SUNNY     19   5  53 W6        30.53F WCI  11
PERRY *          N/A     19   3  49 CALM      30.48F
$$

IAZ004>006-015-016-023>025-035-036-052200-
   NORTH CENTRAL IOWA

CITY           SKY/WX    TMP DP  RH WIND       PRES   REMARKS
ALGONA *       SUNNY     18 N/A N/A S10       30.43F WCI   6
CLARION *      SUNNY     14   3  62 SW7       30.46F WCI   4
ESTHERVILLE    SUNNY     17   3  54 SW12      30.39F WCI   4
FORT DODGE *   SUNNY     18   1  49 SW8       30.45F WCI   7
MASON CITY     SUNNY     11   2  67 SW8       30.46F WCI  -1
FOREST CITY *  SUNNY     16   1  53 SW8       30.44S WCI   5
IOWA FALLS *     N/A     14   1  57 S5        30.48F WCI   6
$$

IAZ007>011-017>019-026>030-037>042-050>054-066-052200-
   NORTHEAST IOWA

CITY           SKY/WX    TMP DP  RH WIND       PRES   REMARKS
CEDAR RAPIDS   SUNNY      9  -1  64 NW10      30.52S WCI  -5
CHARLES CITY * SUNNY      9  -2  61 W7        30.48F WCI  -3
CLINTON *      SUNNY     10   0  61 W12       30.55F WCI  -4
DECORAH *      SUNNY      9  -4  56 W10       30.46S WCI  -6
DUBUQUE        SUNNY      9  -4  55 W10       30.48S WCI  -5
MONTICELLO *   SUNNY      9  -4  56 W12       30.52S WCI  -6
OELWEIN *      SUNNY      9  -4  56 NW8       30.49F WCI  -4
WATERLOO       SUNNY     10  -1  61 SW8       30.51F WCI  -2
$$

IAZ064-065-067-068-078-052200-
   EAST CENTRAL IOWA

CITY           SKY/WX    TMP DP  RH WIND       PRES   REMARKS
DAVENPORT      SUNNY     10  -2  58 NW8       30.53F WCI  -2
IOWA CITY      SUNNY     12  -2  53 NW9       30.56S WCI   0
MT. PLEASANT * SUNNY     16   0  48 NW5       30.55S WCI   9
MUSCATINE *    SUNNY     14   0  52 NW9       30.57S WCI   2
QUAD CITIES    SUNNY     13  -1  54 NW12      30.54F WCI  -1
$$

IAZ062-063-075>077-085>089-095>099-052200-
   SOUTHEAST IOWA

CITY           SKY/WX    TMP DP  RH WIND       PRES   REMARKS
BURLINGTON     SUNNY     15   0  51 NW8       30.54S WCI   4
FAIRFIELD *    SUNNY     16   0  48 N7        30.53F WCI   6
FORT MADISON * SUNNY     16   1  53 NW7       30.55S WCI   6
KEOKUK *       SUNNY     18   1  49 N6        30.54F WCI   9
OSKALOOSA *      N/A     16   1  53 W5        30.52F WCI   9
CENTERVILLE *  SUNNY     21   1  42 NW3       30.51F
OTTUMWA        SUNNY     18   1  47 CALM      30.51F
WASHINGTON *   SUNNY     12   1  62 W6G12     30.54F WCI   3
$$

ABBREVIATIONS USED IN REMARKS
   TC - TEMPERATURES IN CELSIUS
  WCI - WIND CHILL INDEX
   HX - HEAT INDEX
  VSB - VISIBILITY
$$




USA.gov is the U.S. government's official web portal to all federal, state and local government web resources and services.